This demonstration page uses our WeatherBlox Daily Observations layout. Learn more.

41.55636, -103.73856

Hourly Observations for October 23, 2019

Temp ( °F °C ) Dew Point ( °F °C ) Humidity (%) Winds ( mph kmh ) Pressure ( in mb ) Visibility ( mi km ) Precip ( " mm )
12:58 am 00:58 Cloudy 52 11.3 33 0.6 48 48 WNW 7 11 29.94 1014 10 16.0934 0 0
1:58 am 01:58 Mostly Cloudy 53 11.9 31 -0.4 43 43 WNW 16 26 29.92 1013 10 16.0934 0 0
2:58 am 02:58 Mostly Cloudy with Light Showers 49 9.7 32 0.1 52 52 W 12 19 29.91 1013 10 16.0934 0 0
3:58 am 03:58 Partly Cloudy 52 11.1 31 -0.6 45 45 W 18 30 29.86 1011 10 16.0934 0 0
4:58 am 04:58 Mostly Clear 51 10.8 30 -1 44 44 W 20 31 29.83 1010 10 16.0934 0 0
5:58 am 05:58 Clear 51 10.5 30 -1.1 45 45 WNW 16 26 29.82 1010 10 16.0934 0 0
6:58 am 06:58 Mostly Clear 49 9.7 30 -0.9 48 48 WNW 16 26 29.8 1009 10 16.0934 0 0
8:58 am 08:58 Windy with Rain Showers Likely 41 4.8 35 1.6 80 80 NNW 21 33 29.94 1014 10 16.0934 0 0
9:58 am 09:58 Mostly Cloudy with Light Showers 38 3.4 36 2.3 93 93 WNW 14 22 29.97 1015 10 16.0934 0.06 1.524
10:58 am 10:58 Mostly Cloudy 37 2.7 35 1.5 92 92 WNW 16 26 29.98 1015 10 16.0934 0 0
11:58 am 11:58 Mostly Cloudy 37 3 34 1 87 87 WNW 15 24 30.01 1016 10 16.0934 0 0
1:58 pm 13:58 Mostly Sunny 35 1.6 32 0 89 89 WNW 9 15 30.02 1017 10 16.0934 0 0
2:58 pm 14:58 Mostly Sunny 41 5.2 33 0.6 72 72 WNW 17 28 30.03 1017 10 16.0934 0 0
3:58 pm 15:58 Sunny 45 7 31 -0.7 58 58 WNW 23 37 30.03 1017 10 16.0934 0 0
4:58 pm 16:58 Sunny 47 8.1 28 -2.4 48 48 NW 28 44 30.03 1017 10 16.0934 0 0
5:58 pm 17:58 Mostly Sunny 47 8.6 27 -2.6 46 46 NW 25 41 30.03 1017 10 16.0934 0 0
7:58 pm 19:58 Sunny 47 8.3 28 -2.4 47 47 NNW 32 52 30.06 1018 10 16.0934 0 0
8:58 pm 20:58 Mostly Cloudy 45 7.2 25 -3.7 46 46 N 23 37 30.12 1020 10 16.0934 0 0
9:58 pm 21:58 Mostly Sunny 43 5.9 23 -4.8 47 47 N 26 43 30.17 1022 10 16.0934 0 0
10:58 pm 22:58 Mostly Cloudy 38 3.3 25 -3.7 60 60 NE 14 22 30.25 1025 10 16.0934 0 0
11:58 pm 23:58 Cloudy 38 3.1 26 -3.6 62 62 NNE 12 19 30.26 1025 10 16.0934 0 0

Powered by AerisWeather